THOR ABLESTAR DEB

Satellite information

Favourite Embed

Satellite Type and Status

DEBRISIN ORBIT

Key statistics

Satellite THOR ABLESTAR DEB at a glance.

Uptime

23324

Days in orbit

Revolutions

≈ 14.1

Per day

Orbit

LEO

Low Earth Orbit

Inclination

66.9

Latest

Satellite identification and parameters

Extended collection of information and parameters for THOR ABLESTAR DEB.

Object identification

Identified? True

Debris? True

Object name: THOR ABLESTAR DEB

International designator: 1961-015DA

Object number (NORAD): 324

Object ID (CCSDS): 324

Country: UNITED STATES OF AMERICA (US)

Current information (Y/N): Y

RCS size: SMALL

Orbital parameters

Period: 101.923 minutes

Inclination: 66.8647 deg

SMA: 7227.832 km

Apoapsis: 901.325 km

Periapsis: 798.069 km

RAAN: 335.6938 deg

Eccentricy: 0.0071429

Argument of periapsis: 323.2832 deg

Mean anomaly: 36.3376 deg

Mean motion: 14.12832575 rev/day

Mean motion (dot): 0.00000603 rev/day2

B* drag term: 0.00035878 1/REarth

Two-line elements (TLE)

Creation date: May 8, 2025, 3:01 a.m.

Reference frame: TEME

Reference center: EARTH

Epoch: May 7, 2025, 5:32 p.m. UTC

TLE line 0: 0 THOR ABLESTAR DEB

TLE line 1: 1 00324U 61015DA 25127.73100119 .00000603 00000-0 35878-3 0 9994

TLE line 2: 2 00324 66.8647 335.6938 0071429 323.2832 36.3376 14.12832575265785

Live tracking on map

Real-time ground track for satellite THOR ABLESTAR DEB.

In-orbit conjunctions

A list of the most updated potential collisions computed for object THOR ABLESTAR DEB.

Target Orbit TCA Probability of collision Miss distance Type
CZ-6A DEB LEO 2025-01-02 20:33:53 0.0003824307 181.0 (m) DEBRIS
CZ-6A DEB LEO 2024-09-20 03:09:49 0.0006685913 580.0 (m) DEBRIS

Associated space launch

THOR ABLESTAR DEB was lifted into orbit during the mission ‘Thor DM-21 Ablestar | Transit 4A & Injun-1 & Solrad 3’, on board a Thor DM-21 Ablestar space rocket.

The launch took place on June 29, 1961, 4:23 a.m. from Space Launch Complex 17B.

For more information about the launch, click the button.

Launch to space Thor DM-21 Ablestar | Transit 4A & Injun-1 & Solrad 3
Thor DM-21 Ablestar | Transit 4A & Injun-1 & Solrad 3

Agency: N/A

Status: Launch Successful

Launch date: June 29, 1961, 4:23 a.m. UTC

Rocket: Thor DM-21 Ablestar

Launch pad: Space Launch Complex 17B

Location: Cape Canaveral SFS, FL, USA

...

Latest news about this satellite

There are no fresh news available about this satellite. Check back as we update our databases every day.


Newsletter sign-up

Weekly statistics, charts and insights to help you stay on top of the space industry.